User: anonymous   Login
Location: Mat�lon
(46.2791°N, 7.1028°E)
Time: 04:14:23
(UTC+00:00)
Language:

CREW DRAGON DEMO-1 DEB - Orbit

View from above orbital plane
View from above orbital plane
View from above satellite
View from above satellite

Ground track
Ground track

The orbit data is extracted from the following two-line orbital elements,

1 44064U 19011B   20333.47620069 +.00044326 +00000-0 +35159-3 0  9990
2 44064 051.6315 198.6166 0001045 283.7736 076.3145 15.70821552098632
Epoch (UTC): 28 November 2020 11:25:43
Eccentricity: 0.0001045
inclination: 51.6315°
perigee height: 356 km
apogee height: 357 km
right ascension of ascending node: 198.6166°
argument of perigee: 283.7736°
revolutions per day: 15.70821552
mean anomaly at epoch: 76.3145°
orbit number at epoch: 9863

The dashed part of the orbit path shows where the satellite is in the earth's shadow,  

DLR